Location: Newark
(55.1225°N, 33.2808°E)
Time: 15:30:02
(UTC+00:00)

ISS - Pass Details

Date: 21 September 2019
Orbit: 411 x 421 km, 51.6° (Epoch: 19 October)

Event Time Altitude Azimuth Distance (km) Brightness Sun altitude
Rises 18:34:49 0° 241° (WSW) 2,340 0.3 -22.7°
Reaches altitude 10° 18:37:00 10° 232° (SW) 1,480 -0.8 -23.0°
Enters shadow 18:37:05 11° 232° (SW) 1,447 -0.9 -23.0°
